Weather History for Charlevoix, MI

Change the Weather History Date:

Wednesday, July 3, 2013

  Actual Average Record
Temperature  
Mean Temperature 66 °F -  
Max Temperature 73 °F 74 °F 84 °F (2003)
Min Temperature 58 °F 60 °F 55 °F (2001)
Growing Degree Days 16 (Base 50)    
Moisture  
Dew Point 53 °F    
Average Humidity 63    
Maximum Humidity 84    
Minimum Humidity 36    
Precipitation  
Precipitation 0.00 in - - ()
Sea Level Pressure  
Sea Level Pressure 30.12 in    
Wind  
Wind Speed 2 mph (NNE)    
Max Wind Speed 12 mph    
Max Gust Speed -    
Visibility 10 miles    
Events      
Averages and records for this station are not official NWS values.
T = Trace of Precipitation, MM = Missing Value Source: NWS Daily Summary

Daily Weather History Graph

Daily Weather History Graph

Search for Another Location

Airport:

Trip Planner

Search our weather history database for the weather conditions in past years. The results will help you decide how hot, cold, wet, or windy it might be!

Date:

Astronomy

Jul. 03, 2013 Rise Set
Actual Time 5:58 AM EDT 9:32 PM EDT
Civil Twilight 5:21 AM EDT 10:09 PM EDT
Nautical Twilight 4:31 AM EDT 10:58 PM EDT
Astronomical Twilight 3:26 AM EDT 12:03 AM EDT
Moon 2:42 AM EDT (7/3) 5:37 PM EDT (7/3)
Length of Visible Light 16h 48m
Length of Day
15h 33m
Waning Crescent, 18% of the Moon is Illuminated
Jul 3
Waning Crescent
Jul 8
New
Jul 15
First Quarter
Jul 22
Full
Jul 29
Last Quarter

Hourly Weather History & Observations

Time (EDT) Temp. Dew Point Humidity Pressure Visibility Wind Dir Wind Speed Gust Speed Precip Events Conditions
12:15 AM 60.3 °F 52.2 °F 75% 30.14 in 10.0 mi Calm Calm - N/A   Mostly Cloudy
12:34 AM 61.5 °F 51.6 °F 70% 30.13 in 10.0 mi Calm Calm - N/A   Overcast
12:54 AM 61.2 °F 52.5 °F 73% 30.13 in 10.0 mi Calm Calm - N/A   Overcast
1:14 AM 61.3 °F 53.2 °F 75% 30.14 in 10.0 mi Calm Calm - N/A   Overcast
1:34 AM 61.0 °F 52.0 °F 72% 30.13 in 10.0 mi Calm Calm - N/A   Overcast
1:54 AM 61.0 °F 52.2 °F 73% 30.13 in 10.0 mi Calm Calm - N/A   Overcast
2:14 AM 61.0 °F 51.3 °F 70% 30.13 in 10.0 mi Calm Calm - N/A   Overcast
2:34 AM 61.5 °F 51.4 °F 69% 30.13 in 10.0 mi Calm Calm - N/A   Overcast
2:54 AM 61.7 °F 52.0 °F 70% 30.13 in 10.0 mi Calm Calm - N/A   Overcast
3:14 AM 62.1 °F 52.5 °F 71% 30.13 in 10.0 mi Calm Calm - N/A   Overcast
3:35 AM 61.9 °F 51.6 °F 69% 30.13 in 10.0 mi Calm Calm - N/A   Overcast
3:54 AM 61.5 °F 52.3 °F 72% 30.13 in 10.0 mi Calm Calm - N/A   Overcast
4:14 AM 61.0 °F 52.3 °F 73% 30.12 in 10.0 mi Calm Calm - N/A   Mostly Cloudy
4:34 AM 59.5 °F 52.9 °F 79% 30.12 in 10.0 mi Calm Calm - N/A   Overcast
4:54 AM 58.6 °F 53.8 °F 84% 30.12 in 10.0 mi Calm Calm - N/A   Overcast
5:15 AM 58.5 °F 53.2 °F 83% 30.13 in 10.0 mi Calm Calm - N/A   Overcast
5:34 AM 58.8 °F 52.3 °F 79% 30.14 in 10.0 mi Calm Calm - N/A   Overcast
5:54 AM 59.2 °F 53.1 °F 80% 30.13 in 10.0 mi Calm Calm - N/A   Overcast
6:14 AM 59.0 °F 53.1 °F 81% 30.14 in 10.0 mi Calm Calm - N/A   Overcast
6:34 AM 59.0 °F 53.6 °F 82% 30.14 in 10.0 mi Calm Calm - N/A   Mostly Cloudy
6:55 AM 59.2 °F 53.8 °F 82% 30.14 in 10.0 mi Calm Calm - N/A   Scattered Clouds
7:14 AM 60.6 °F 53.8 °F 78% 30.14 in 10.0 mi Calm Calm - N/A   Scattered Clouds
7:34 AM 61.3 °F 53.8 °F 76% 30.14 in 10.0 mi SE 3.5 mph - N/A   Scattered Clouds
7:54 AM 63.1 °F 54.0 °F 72% 30.14 in 10.0 mi SE 4.6 mph - N/A   Clear
8:14 AM 64.8 °F 52.9 °F 65% 30.15 in 10.0 mi SE 5.8 mph - N/A   Clear
8:34 AM 65.5 °F 52.5 °F 63% 30.15 in 10.0 mi East 4.6 mph - N/A   Scattered Clouds
8:54 AM 66.9 °F 52.7 °F 60% 30.15 in 10.0 mi ESE 5.8 mph - N/A   Overcast
9:14 AM 67.6 °F 52.9 °F 59% 30.15 in 10.0 mi ESE 5.8 mph - N/A   Mostly Cloudy
9:35 AM 68.5 °F 52.7 °F 57% 30.15 in 10.0 mi East 6.9 mph - N/A   Scattered Clouds
9:54 AM 69.3 °F 52.0 °F 54% 30.15 in 10.0 mi East 3.5 mph - N/A   Clear
10:14 AM 70.0 °F 52.0 °F 53% 30.15 in 10.0 mi Calm Calm - N/A   Clear
10:35 AM 71.4 °F 49.6 °F 46% 30.16 in 10.0 mi East 4.6 mph - N/A   Clear
10:54 AM 71.4 °F 45.1 °F 39% 30.15 in 10.0 mi East 6.9 mph - N/A   Clear
11:14 AM 72.0 °F 43.9 °F 36% 30.15 in 10.0 mi East 5.8 mph - N/A   Scattered Clouds
11:35 AM 72.1 °F 49.1 °F 44% 30.14 in 10.0 mi North 5.8 mph - N/A   Mostly Cloudy
11:54 AM 72.0 °F 50.0 °F 46% 30.14 in 10.0 mi NNE 6.9 mph - N/A   Mostly Cloudy
12:14 PM 73.4 °F 50.0 °F 44% 30.14 in 10.0 mi East 3.5 mph - N/A   Scattered Clouds
12:34 PM 72.7 °F 48.4 °F 42% 30.14 in 10.0 mi North 8.1 mph - N/A   Mostly Cloudy
12:54 PM 71.8 °F 48.0 °F 43% 30.14 in 10.0 mi NNW 8.1 mph - N/A   Mostly Cloudy
1:14 PM 71.8 °F 47.8 °F 43% 30.14 in 10.0 mi NNW 6.9 mph - N/A   Mostly Cloudy
1:34 PM 70.7 °F 48.7 °F 46% 30.14 in 10.0 mi NNW 9.2 mph - N/A   Mostly Cloudy
1:54 PM 70.9 °F 54.7 °F 56% 30.13 in 10.0 mi North 11.5 mph - N/A   Mostly Cloudy
2:15 PM 70.3 °F 52.3 °F 53% 30.12 in 10.0 mi North 9.2 mph - N/A   Clear
2:34 PM 69.8 °F 48.2 °F 46% 30.12 in 10.0 mi North 11.5 mph - N/A   Scattered Clouds
2:54 PM 71.2 °F 46.9 °F 42% 30.12 in 10.0 mi North 8.1 mph - N/A   Scattered Clouds
3:14 PM 70.2 °F 50.5 °F 50% 30.12 in 10.0 mi North 8.1 mph - N/A   Scattered Clouds
3:34 PM 70.2 °F 50.7 °F 50% 30.12 in 10.0 mi NNE 9.2 mph - N/A   Mostly Cloudy
3:55 PM 70.3 °F 51.3 °F 51% 30.11 in 10.0 mi North 8.1 mph - N/A   Mostly Cloudy
4:14 PM 68.5 °F 50.5 °F 53% 30.11 in 10.0 mi North 6.9 mph - N/A   Overcast
4:34 PM 69.3 °F 50.9 °F 52% 30.10 in 10.0 mi North 8.1 mph - N/A   Mostly Cloudy
4:55 PM 70.7 °F 50.5 °F 49% 30.10 in 10.0 mi North 10.4 mph - N/A   Scattered Clouds
5:14 PM 70.0 °F 53.2 °F 55% 30.09 in 10.0 mi North 9.2 mph - N/A   Mostly Cloudy
5:34 PM 69.8 °F 54.9 °F 59% 30.09 in 10.0 mi North 6.9 mph - N/A   Mostly Cloudy
5:55 PM 70.3 °F 55.4 °F 59% 30.09 in 10.0 mi North 6.9 mph - N/A   Scattered Clouds
6:14 PM 70.2 °F 55.6 °F 60% 30.08 in 10.0 mi North 9.2 mph - N/A   Scattered Clouds
6:34 PM 68.7 °F 56.3 °F 64% 30.08 in 10.0 mi North 5.8 mph - N/A   Mostly Cloudy
6:55 PM 68.9 °F 57.2 °F 66% 30.07 in 10.0 mi West 3.5 mph - N/A   Overcast
7:14 PM 69.4 °F 57.4 °F 65% 30.07 in 10.0 mi Calm Calm - N/A   Overcast
7:34 PM 70.2 °F 57.6 °F 64% 30.07 in 10.0 mi Calm Calm - N/A   Overcast
7:54 PM 71.4 °F 57.4 °F 61% 30.07 in 10.0 mi Calm Calm - N/A   Overcast
8:14 PM 71.6 °F 57.4 °F 61% 30.06 in 10.0 mi Calm Calm - N/A   Overcast
8:34 PM 72.9 °F 54.9 °F 53% 30.06 in 10.0 mi Calm Calm - N/A   Overcast
8:54 PM 71.2 °F 57.6 °F 62% 30.06 in 10.0 mi Calm Calm - N/A   Scattered Clouds
9:14 PM 68.2 °F 56.3 °F 66% 30.06 in 10.0 mi North 4.6 mph - N/A   Clear
9:35 PM 70.0 °F 55.9 °F 61% 30.06 in 10.0 mi Calm Calm - N/A   Clear
9:54 PM 66.4 °F 56.5 °F 70% 30.07 in 3.0 mi Calm Calm - N/A   Haze
10:14 PM 65.3 °F 58.3 °F 78% 30.07 in 10.0 mi Calm Calm - N/A   Scattered Clouds
10:35 PM 64.6 °F 58.1 °F 79% 30.07 in 10.0 mi Calm Calm - N/A   Clear
10:54 PM 63.5 °F 57.9 °F 82% 30.07 in 10.0 mi Calm Calm - N/A   Clear
11:14 PM 65.1 °F 57.9 °F 77% 30.07 in 10.0 mi Calm Calm - N/A   Clear
11:35 PM 64.0 °F 58.1 °F 81% 30.07 in 10.0 mi SE 3.5 mph - N/A   Clear
11:54 PM 64.8 °F 58.1 °F 79% 30.07 in 10.0 mi Calm Calm - N/A   Scattered Clouds